Soldotna, AK

11:49 AM AKST on December 17, 2017 (GMT -0900)
Soldotna

Weather History for PASX - December, 2012

Change the Weather History Date:

Friday, December 28, 2012

  Actual Average Record
Temperature  
Mean Temperature 32 °F -  
Max Temperature 39 °F 23 °F 46 °F (1982)
Min Temperature 24 °F 10 °F -40 °F (1961)
Degree Days  
Heating Degree Days 34    
Moisture  
Dew Point 27 °F    
Average Humidity 94    
Maximum Humidity 100    
Minimum Humidity 81    
Precipitation  
Precipitation 0.00 in - - ()
Sea Level Pressure  
Sea Level Pressure 29.46 in    
Wind  
Wind Speed 3 mph (East)    
Max Wind Speed 15 mph    
Max Gust Speed 20 mph    
Visibility 8 miles    
Events      
Averages and records for this station are not official NWS values.
T = Trace of Precipitation, MM = Missing Value Source: NWS Daily Summary

Daily Weather History Graph

Daily Weather History Graph

Search for Another Location

Airport or City:

Trip Planner

Search our weather history database for the weather conditions in past years. The results will help you decide how hot, cold, wet, or windy it might be!

Date:

Astronomy

Dec. 28, 2012 Rise Set
Actual Time 10:12 AM AKST 4:00 PM AKST
Civil Twilight 9:13 AM AKST 4:59 PM AKST
Nautical Twilight 8:15 AM AKST 5:56 PM AKST
Astronomical Twilight 7:23 AM AKST 6:49 PM AKST
Moon 5:09 PM AKST (12/28) 9:52 AM AKST (12/28)
Length of Visible Light 7h 45m
Length of Day
5h 48m
Full, 100% of the Moon is Illuminated
Dec 28
Full
Jan 4
Last Quarter
Jan 11
New
Jan 18
First Quarter
Jan 26
Full

Hourly Weather History & Observations

Time (AKST) Temp. Windchill Dew Point Humidity Pressure Visibility Wind Dir Wind Speed Gust Speed Precip Events Conditions
12:16 AM 30.2 °F 24.3 °F 26.6 °F 86% 29.37 in 8.0 mi ENE 5.8 mph - N/A   Overcast
12:36 AM 30.2 °F 24.3 °F 28.4 °F 93% 29.38 in 8.0 mi ENE 5.8 mph - N/A   Overcast
12:56 AM 30.2 °F 26.7 °F 28.4 °F 93% 29.38 in 8.0 mi NE 3.5 mph - N/A   Overcast
1:16 AM 30.2 °F - 26.6 °F 86% 29.39 in 9.0 mi Calm Calm - N/A   Overcast
1:36 AM 28.4 °F - 26.6 °F 93% 29.39 in 9.0 mi Calm Calm - N/A   Overcast
1:56 AM 26.6 °F - 26.6 °F 100% 29.39 in 8.0 mi Calm Calm - N/A   Scattered Clouds
2:16 AM 24.8 °F - 23.0 °F 93% 29.40 in 8.0 mi Calm Calm - N/A   Mostly Cloudy
2:36 AM 24.8 °F - 24.8 °F 100% 29.41 in 8.0 mi Calm Calm - N/A   Overcast
2:56 AM 24.8 °F 19.1 °F 24.8 °F 100% 29.41 in 9.0 mi East 4.6 mph - N/A   Overcast
3:16 AM 24.8 °F - 24.8 °F 100% 29.42 in 8.0 mi Calm Calm - N/A   Overcast
3:36 AM 24.8 °F - 23.0 °F 93% 29.42 in 8.0 mi Calm Calm - N/A   Overcast
3:56 AM 24.8 °F - 24.8 °F 100% 29.43 in 9.0 mi Calm Calm - N/A   Overcast
4:16 AM 26.6 °F 22.6 °F 24.8 °F 93% 29.43 in 9.0 mi ENE 3.5 mph - N/A   Overcast
4:36 AM 26.6 °F - 24.8 °F 93% 29.43 in 9.0 mi Calm Calm - N/A   Overcast
4:56 AM 26.6 °F 22.6 °F 26.6 °F 100% 29.43 in 9.0 mi East 3.5 mph - N/A   Overcast
5:16 AM 26.6 °F - 26.6 °F 100% 29.43 in 9.0 mi Calm Calm - N/A   Overcast
5:36 AM 26.6 °F - 24.8 °F 93% 29.44 in 8.0 mi Calm Calm - N/A   Mostly Cloudy
5:56 AM 24.8 °F - 24.8 °F 100% 29.44 in 9.0 mi Calm Calm - N/A   Overcast
6:16 AM 26.6 °F - 24.8 °F 93% 29.44 in 9.0 mi Calm Calm - N/A   Overcast
6:36 AM 24.8 °F - 24.8 °F 100% 29.45 in 9.0 mi Calm Calm - N/A   Overcast
6:56 AM 26.6 °F - 26.6 °F 100% 29.45 in 9.0 mi Calm Calm - N/A   Overcast
7:16 AM 26.6 °F - 24.8 °F 93% 29.46 in 9.0 mi Calm Calm - N/A   Overcast
7:36 AM 26.6 °F - 26.6 °F 100% 29.46 in 9.0 mi Calm Calm - N/A   Overcast
7:56 AM 26.6 °F - 26.6 °F 100% 29.46 in 9.0 mi Calm Calm - N/A   Overcast
8:16 AM 26.6 °F - 24.8 °F 93% 29.46 in 9.0 mi Calm Calm - N/A   Overcast
8:36 AM 24.8 °F - 24.8 °F 100% 29.47 in 9.0 mi Calm Calm - N/A   Overcast
8:56 AM 24.8 °F - 23.0 °F 93% 29.48 in 9.0 mi Calm Calm - N/A   Overcast
9:16 AM 24.8 °F - 23.0 °F 93% 29.48 in 9.0 mi Calm Calm - N/A   Overcast
9:36 AM 26.6 °F - 24.8 °F 93% 29.49 in 10.0 mi Calm Calm - N/A   Overcast
9:56 AM 26.6 °F - 24.8 °F 93% 29.49 in 7.0 mi Calm Calm - N/A   Overcast
10:16 AM 26.6 °F - 26.6 °F 100% 29.50 in 7.0 mi Calm Calm - N/A   Overcast
10:36 AM 26.6 °F 22.6 °F 24.8 °F 93% 29.50 in 7.0 mi ENE 3.5 mph - N/A   Overcast
10:56 AM 24.8 °F 20.5 °F 23.0 °F 93% 29.52 in 7.0 mi ESE 3.5 mph - N/A   Overcast
11:16 AM 24.8 °F 20.5 °F 23.0 °F 93% 29.52 in 7.0 mi East 3.5 mph - N/A   Overcast
11:36 AM 24.8 °F 17.9 °F 24.8 °F 100% 29.52 in 7.0 mi East 5.8 mph - N/A   Overcast
11:56 AM 26.6 °F 20.0 °F 26.6 °F 100% 29.52 in 7.0 mi East 5.8 mph - N/A   Overcast
12:16 PM 26.6 °F 21.2 °F 26.6 °F 100% 29.52 in 7.0 mi East 4.6 mph - N/A   Overcast
12:36 PM 28.4 °F - 26.6 °F 93% 29.52 in 7.0 mi Calm Calm - N/A   Overcast
12:56 PM 26.6 °F 21.2 °F 24.8 °F 93% 29.52 in 7.0 mi West 4.6 mph - N/A   Overcast
1:16 PM 26.6 °F - 24.8 °F 93% 29.52 in 7.0 mi Calm Calm - N/A   Overcast
1:36 PM 26.6 °F - 24.8 °F 93% 29.53 in 7.0 mi Calm Calm - N/A   Overcast
1:56 PM 28.4 °F - 26.6 °F 93% 29.53 in 7.0 mi Calm Calm - N/A   Overcast
2:16 PM 26.6 °F - 26.6 °F 100% 29.53 in 7.0 mi Calm Calm - N/A   Overcast
2:36 PM 28.4 °F - 26.6 °F 93% 29.53 in 7.0 mi Calm Calm - N/A   Overcast
2:56 PM 28.4 °F - 26.6 °F 93% 29.53 in 7.0 mi Calm Calm - N/A   Overcast
3:16 PM 28.4 °F - 26.6 °F 93% 29.52 in 7.0 mi Calm Calm - N/A   Overcast
3:36 PM 28.4 °F - 26.6 °F 93% 29.52 in 7.0 mi Calm Calm - N/A   Overcast
3:56 PM 28.4 °F - 26.6 °F 93% 29.52 in 7.0 mi Calm Calm - N/A   Mostly Cloudy
4:16 PM 28.4 °F 24.6 °F 26.6 °F 93% 29.52 in 8.0 mi ENE 3.5 mph - N/A   Partly Cloudy
4:36 PM 28.4 °F - 26.6 °F 93% 29.52 in 7.0 mi Calm Calm - N/A   Clear
4:56 PM 26.6 °F - 24.8 °F 93% 29.52 in 8.0 mi Calm Calm - N/A   Clear
5:16 PM 26.6 °F - 26.6 °F 100% 29.52 in 8.0 mi Calm Calm - N/A   Clear
5:36 PM 26.6 °F - 24.8 °F 93% 29.51 in 8.0 mi Calm Calm - N/A   Mostly Cloudy
5:56 PM 26.6 °F - 24.8 °F 93% 29.51 in 8.0 mi Calm Calm - N/A   Overcast
6:16 PM 26.6 °F - 26.6 °F 100% 29.50 in 8.0 mi Calm Calm - N/A   Overcast
6:36 PM 26.6 °F - 24.8 °F 93% 29.50 in 8.0 mi Calm Calm - N/A   Overcast
6:56 PM 26.6 °F - 24.8 °F 93% 29.48 in 8.0 mi Calm Calm - N/A   Overcast
7:16 PM 28.4 °F 19.7 °F 26.6 °F 93% 29.46 in 10.0 mi East 9.2 mph - N/A   Scattered Clouds
7:36 PM 32.0 °F 25.6 °F 30.2 °F 93% 29.46 in 10.0 mi East 6.9 mph - N/A   Clear
7:56 PM 33.8 °F 27.7 °F 30.2 °F 87% 29.45 in 10.0 mi East 6.9 mph - N/A   Clear
8:16 PM 35.6 °F 28.0 °F 32.0 °F 87% 29.44 in 10.0 mi East 10.4 mph - N/A   Clear
8:36 PM 35.6 °F 28.6 °F 32.0 °F 87% 29.45 in 10.0 mi East 9.2 mph - N/A   Clear
8:56 PM 35.6 °F 27.5 °F 32.0 °F 87% 29.44 in 10.0 mi East 11.5 mph - N/A   Clear
9:16 PM 37.4 °F 29.8 °F 33.8 °F 87% 29.43 in 10.0 mi East 11.5 mph - N/A   Clear
9:36 PM 37.4 °F 32.1 °F 33.8 °F 87% 29.44 in 10.0 mi East 6.9 mph - N/A   Clear
9:56 PM 35.6 °F 29.2 °F 32.0 °F 87% 29.43 in 10.0 mi East 8.1 mph - N/A   Clear
10:16 PM 35.6 °F - 32.0 °F 87% 29.41 in 10.0 mi Calm Calm - N/A   Clear
10:36 PM 35.6 °F 29.9 °F 33.8 °F 93% 29.41 in 10.0 mi ESE 6.9 mph - N/A   Clear
10:56 PM 39.2 °F 35.9 °F 33.8 °F 81% 29.41 in 10.0 mi East 4.6 mph - N/A   Clear
11:16 PM 39.2 °F 33.6 °F 33.8 °F 81% 29.40 in 10.0 mi East 8.1 mph - N/A   Clear
11:36 PM 37.4 °F 29.3 °F 33.8 °F 87% 29.39 in 10.0 mi East 12.7 mph 16.1 mph N/A   Clear
11:56 PM 37.4 °F 28.5 °F 33.8 °F 87% 29.36 in 10.0 mi East 15.0 mph 19.6 mph N/A   Clear